Regional Weather Roundup
Issued by NWS

Home | Current Version | Previous Version | Graphics & Text | Print | Product List | Glossary On
Versions: 1 2 3 4 5 6 7 8 9 10 11 12 13 14 15 16 17 18 19 20 21 22 23 24 25 26 27 28 29 30 31 32 33 34 35 36 37 38 39 40 41 42 43 44 45 46 47 48 49 50
000
ASUS43 KIND 220259
RWRIN

WEATHER ROUNDUP FOR INDIANA
NATIONAL WEATHER SERVICE INDIANAPOLIS IN
1100 PM EDT SAT OCT 21 2017

NOTE: "FAIR" INDICATES FEW OR NO CLOUDS BELOW 12,000 FEET WITH NO
SIGNIFICANT WEATHER AND/OR OBSTRUCTIONS TO VISIBILITY.

* - STATION DOES NOT REPORT WEATHER SUCH AS PRECIPITATION OR FOG.

+ - STATION NOT QUALITY CONTROLLED BY THE NATIONAL WEATHER SERVICE.
    USE DATA WITH CAUTION...ESPECIALLY DEWPOINT AND RELATIVE
    HUMIDITY OBSERVATIONS.

INZ001>003-010>013-019-020-220400-
NORTHWEST INDIANA

CITY           SKY/WX    TMP DP  RH WIND       PRES   REMARKS
GARY /AIRPORT/ PTCLDY    70  55  60 SE14      30.03F
MONTICELLO +   CLEAR     66  50  57 S8        30.09S

$$

LMZ046-743>745-220400-
SOUTHERN LAKE MICHIGAN

STATION/POSITION TIME  TEMP    WIND        PRES    WAVE
                       AIR SEA DIR/SP/G            HT
                 (UTC) (F)     (DEG/KT/KT) (MB)    (FT)
BURNS HARBOR     0240   69     170/ 12/ 20 1017.6S
MICHIGAN CITY    0230   69     150/ 12/ 15   N/A
5NW MICH CITY    0250   67 58  180/ 17/ 25   N/A     2

$$

INZ004-005-014>016-021>024-220400-
NORTH CENTRAL INDIANA

CITY           SKY/WX    TMP DP  RH WIND       PRES   REMARKS
GOSHEN         CLEAR     66  49  54 S16       30.10F
PERU/GRISSOM   CLEAR     63  51  64 S13       30.11F
SOUTH BEND     CLEAR     66  52  60 S13       30.08F

$$

INZ006>009-017-018-025>027-220400-
NORTHEAST INDIANA

CITY           SKY/WX    TMP DP  RH WIND       PRES   REMARKS
FORT WAYNE     PTCLDY    61  46  57 S10       30.15F
KENDALLVILLE + CLEAR     64  45  51 S10       30.14F

$$

INZ028-029-035-036-043>045-051>053-220400-
WEST CENTRAL INDIANA

CITY           SKY/WX    TMP DP  RH WIND       PRES   REMARKS
LAFAYETTE      CLEAR     65  51  60 SE12G18   30.08F
TERRE HAUTE    CLEAR     65  51  60 S12       30.11S

$$

INZ030>032-037>040-046>048-054>057-064-065-220400-
CENTRAL INDIANA

CITY           SKY/WX    TMP DP  RH WIND       PRES   REMARKS
GREENWOOD *+   CLEAR     65  51  60 S7        30.16S
INDIANAPOLIS   MOCLDY    63  50  62 SE8       30.15R
-EAGLE CREEK   CLEAR     65  49  56 S6        30.14R
KOKOMO +       CLEAR     63  51  65 S14       30.13F
MT COMFORT *+  CLEAR     61  52  72 S7        30.16S
SHELBYVILLE    CLEAR     63  46  54 SE9       30.16S

$$

INZ033-034-041-042-049-050-058-059-220400-
EAST CENTRAL INDIANA

CITY           SKY/WX    TMP DP  RH WIND       PRES   REMARKS
MUNCIE         CLEAR     64  47  53 S7        30.17S
RICHMOND +     CLEAR     57  46  67 SE7       30.20S

$$

INZ060-061-067>069-081>083-085>088-220400-
SOUTHWEST INDIANA

CITY           SKY/WX    TMP DP  RH WIND       PRES   REMARKS
EVANSVILLE     CLEAR     67  54  63 S7        30.12S
HUNTINGBURG +  CLEAR     64  53  67 SE12      30.13F

$$

INZ062-063-066-070>080-084-089>092-220400-
SOUTH CENTRAL AND SOUTHEAST INDIANA

CITY           SKY/WX    TMP DP  RH WIND       PRES   REMARKS
BLOOMINGTON    CLEAR     65  48  54 S7        30.15R
MADISON *+     CLEAR     59  46  63 SE5       30.20F
SEYMOUR +      CLEAR     59  46  63 S5        30.16F

$$




USA.gov is the U.S. government's official web portal to all federal, state and local government web resources and services.